Regional Weather Roundup
Issued by NWS

Home | Current Version | Previous Version | Text Only | Print | Product List | Glossary Off
Versions: 1 2 3 4 5 6 7 8 9 10 11 12 13 14 15 16 17 18 19 20 21 22 23 24 25 26 27 28 29 30 31 32 33 34 35 36 37 38 39 40 41 42 43 44 45 46 47 48 49 50

000
ASUS43 KOAX 280210
RWRNE

WEATHER ROUNDUP FOR NEBRASKA
NATIONAL WEATHER SERVICE OMAHA NE
900 PM CDT SUN JUL 27 2014

NOTES: SATELLITE DATA IS BEING USED TO AUGMENT CLOUD COVER ABOVE
       12000 FEET.
       "FAIR" INDICATES FEW OR NO CLOUDS BELOW 12,000 FEET WITH NO
       SIGNIFICANT WEATHER AND/OR OBSTRUCTIONS TO VISIBILITY.

  * THESE STATIONS DO NOT REPORT WEATHER SUCH AS RAIN...SNOW OR FOG.

NEZ001>004-019>022-054>056-280300-
NEBRASKA PANHANDLE

CITY           SKY/WX    TMP DP  RH WIND       PRES   REMARKS
SCOTTSBLUFF    CLEAR     78  57  48 E7        30.26S
ALLIANCE       CLEAR     77  47  34 E9        30.27S
CHADRON        CLEAR     76  50  40 E8        30.26R
KIMBALL        PTCLDY    75  48  39 SE7       30.32R
SIDNEY         MOCLDY    78  44  29 S8        30.31R
$$

NEZ057>060-069>072-079>082-280300-
SOUTHWEST NEBRASKA

CITY           SKY/WX    TMP DP  RH WIND       PRES   REMARKS
NORTH PLATTE   CLEAR     73  50  44 NE7       30.23R
IMPERIAL       CLOUDY    78  55  44 E7        30.25S
LEXINGTON      CLEAR     72  56  55 N6        30.22R
MCCOOK         PTCLDY    77  54  44 E7        30.22R
OGALLALA       CLEAR     75  52  43 E5        30.26R
$$

NEZ005>010-023>029-035>040-094-280300-
NORTH CENTRAL NEBRASKA

CITY           SKY/WX    TMP DP  RH WIND       PRES   REMARKS
VALENTINE      CLEAR     75  52  44 NE10      30.25R
AINSWORTH      CLEAR     69  53  57 N7        30.25R
BROKEN BOW     CLEAR     68  58  70 NW5       30.22R
O`NEILL        CLEAR     69  53  56 N7        30.22R
ORD            CLEAR     71  56  58 N6        30.19R
THEDFORD       CLEAR     74  51  45 NE6       30.26R
$$

NEZ041-046>049-061>064-073>077-083>087-280300-
SOUTH CENTRAL NEBRASKA

CITY           SKY/WX    TMP DP  RH WIND       PRES   REMARKS
GRAND ISLAND   CLEAR     71  61  70 NE7       30.19R
AURORA         CLEAR     71  63  76 NE3       30.18R
HASTINGS       CLEAR     74  58  57 N3        30.18R
HEBRON         CLEAR     74  59  60 NE5       30.15S
HOLDREGE       CLEAR     72  58  62 CALM      30.21R
KEARNEY *      CLEAR     73  55  53 N5        30.20R
YORK           CLEAR     70  63  78 N7        30.17R
$$

NEZ011>018-030>034-042>045-280300-
NORTHEAST NEBRASKA

CITY           SKY/WX    TMP DP  RH WIND       PRES   REMARKS
NORFOLK        CLEAR     71  57  61 N13       30.17R
ALBION         CLEAR     70  58  65 N6        30.19R
BLAIR          CLEAR     71  55  58 NW7       30.13S
COLUMBUS *     CLEAR     66  57  72 NE5       30.17R
FREMONT        CLEAR     73  58  59 N5        30.15R
WAYNE          CLEAR     68  59  73 N7        30.17R
$$

NEZ050>053-065>068-078-088>093-280300-
SOUTHEAST NEBRASKA

CITY           SKY/WX    TMP DP  RH WIND       PRES   REMARKS
LINCOLN        CLEAR     72  56  57 N7        30.15R
OMAHA EPPLEY   PTCLDY    72  56  57 NW8       30.12R
BEATRICE       CLEAR     70  60  71 N3        30.14R
NEBRASKA CITY  CLEAR     71  56  59 N6        30.13R
PLATTSMOUTH    CLEAR     71  54  55 N5        30.13S
$$

NEZ044-045-051>053-067-280300-
OMAHA AREA

CITY           SKY/WX    TMP DP  RH WIND       PRES   REMARKS
OMAHA EPPLEY   PTCLDY    72  56  57 NW8       30.12R
BLAIR          CLEAR     71  55  58 NW7       30.13S
FREMONT        CLEAR     73  58  59 N5        30.15R
MILLARD        CLEAR     74  57  55 N3        30.13R
OFFUTT AFB     PTCLDY    73  57  56 N6        30.12R
PLATTSMOUTH    CLEAR     71  54  55 N5        30.13S
WAHOO          FAIR      68  60  74 N6        30.14R
$$


USA.gov is the U.S. government's official web portal to all federal, state and local government web resources and services.